Green Bay, WI

5:04 PM CST on February 24, 2017 (GMT -0600)
Austin Straubel International

Weather History for KGRB - March, 2013

Change the Weather History Date:

Thursday, March 28, 2013

  Actual Average Record
Temperature  
Mean Temperature 36 °F 36 °F  
Max Temperature 45 °F 45 °F 74 °F (1946)
Min Temperature 26 °F 27 °F -2 °F (1923)
Degree Days  
Heating Degree Days 29 29  
Month to date heating degree days 1105 975  
Since 1 July heating degree days 6548 6815  
Cooling Degree Days 0 0  
Month to date cooling degree days 0 0  
Year to date cooling degree days 0 0  
Moisture  
Dew Point 22 °F    
Average Humidity 60    
Maximum Humidity 78    
Minimum Humidity 41    
Precipitation  
Precipitation 0.00 in 0.06 in 1.14 in (1931)
Month to date precipitation 1.85 1.64  
Year to date precipitation 6.51 3.88  
Snow  
Snow 0.00 in 0.20 in 11.50 in (1931)
Month to date snowfall 8.4 7.6  
Since 1 July snowfall 66.4 47.8  
Snow Depth 3.00 in    
Sea Level Pressure  
Sea Level Pressure 30.31 in    
Wind  
Wind Speed 5 mph (West)    
Max Wind Speed 9 mph    
Max Gust Speed 12 mph    
Visibility 9 miles    
Events      
T = Trace of Precipitation, MM = Missing Value Source: NWS Daily Summary

Daily Weather History Graph

Daily Weather History Graph

Search for Another Location

Airport or City:

Trip Planner

Search our weather history database for the weather conditions in past years. The results will help you decide how hot, cold, wet, or windy it might be!

Date:

Astronomy

Mar. 28, 2013 Rise Set
Actual Time 6:40 AM CDT 7:15 PM CDT
Civil Twilight 6:11 AM CDT 7:44 PM CDT
Nautical Twilight 5:36 AM CDT 8:19 PM CDT
Astronomical Twilight 5:00 AM CDT 8:55 PM CDT
Moon 9:12 PM CDT (3/28) 7:03 AM CDT (3/28)
Length of Visible Light 13h 33m
Length of Day
12h 34m
Full, 98% of the Moon is Illuminated
Mar 28
Full
Apr 2
Last Quarter
Apr 10
New
Apr 18
First Quarter
Apr 25
Full

Hourly Weather History & Observations

Time (CDT) Temp. Windchill Dew Point Humidity Pressure Visibility Wind Dir Wind Speed Gust Speed Precip Events Conditions
12:53 AM 32.0 °F 24.2 °F 21.9 °F 66% 30.30 in 10.0 mi NW 9.2 mph - N/A   Clear
1:53 AM 30.9 °F 27.5 °F 21.0 °F 67% 30.30 in 10.0 mi North 3.5 mph - N/A   Clear
2:53 AM 28.9 °F 22.8 °F 21.0 °F 72% 30.31 in 10.0 mi NW 5.8 mph - N/A   Clear
3:24 AM 28.9 °F 22.8 °F 21.0 °F 72% 30.29 in 0.2 mi WNW 5.8 mph - N/A   Haze
3:53 AM 28.0 °F 21.7 °F 21.0 °F 75% 30.31 in 0.2 mi West 5.8 mph - N/A   Haze
4:53 AM 28.0 °F 21.7 °F 19.9 °F 72% 30.31 in 0.2 mi WNW 5.8 mph - N/A   Haze
5:14 AM 27.0 °F 20.5 °F 19.9 °F 75% 30.29 in - WNW 5.8 mph - N/A   Clear
5:53 AM 28.0 °F - 19.0 °F 69% 30.32 in 10.0 mi Calm Calm - N/A   Clear
6:53 AM 26.1 °F - 19.9 °F 78% 30.33 in - Calm Calm - N/A   Clear
7:53 AM 28.0 °F 24.2 °F 21.0 °F 75% 30.34 in 10.0 mi WSW 3.5 mph - N/A   Clear
8:53 AM 33.1 °F - 21.0 °F 61% 30.34 in 10.0 mi Calm Calm - N/A   Clear
9:53 AM 36.0 °F 30.3 °F 21.0 °F 55% 30.34 in 10.0 mi NW 6.9 mph - N/A   Clear
10:53 AM 37.9 °F 32.7 °F 21.9 °F 53% 30.33 in 10.0 mi NW 6.9 mph - N/A   Clear
11:53 AM 39.0 °F 32.8 °F 23.0 °F 53% 30.34 in 10.0 mi West 9.2 mph - N/A   Clear
12:53 PM 41.0 °F 35.8 °F 23.0 °F 49% 30.33 in 10.0 mi West 8.1 mph - N/A   Clear
1:53 PM 43.0 °F 38.8 °F 23.0 °F 45% 30.32 in 10.0 mi West 6.9 mph - N/A   Clear
2:53 PM 44.1 °F 40.8 °F 23.0 °F 43% 30.30 in 10.0 mi Variable 5.8 mph - N/A   Clear
3:53 PM 44.1 °F 40.1 °F 24.1 °F 45% 30.30 in 10.0 mi SSW 6.9 mph - N/A   Clear
4:53 PM 45.0 °F 41.8 °F 24.1 °F 44% 30.28 in 10.0 mi SW 5.8 mph - N/A   Clear
6:53 PM 42.1 °F 40.2 °F 21.0 °F 43% 30.28 in 10.0 mi SW 3.5 mph - N/A   Clear
7:53 PM 39.0 °F 34.0 °F 24.1 °F 55% 30.29 in 10.0 mi SSW 6.9 mph - N/A   Clear
8:53 PM 36.0 °F 31.1 °F 25.0 °F 64% 30.29 in 10.0 mi SSW 5.8 mph - N/A   Clear
9:53 PM 36.0 °F 32.1 °F 24.1 °F 62% 30.30 in 10.0 mi SW 4.6 mph - N/A   Clear
10:53 PM 32.0 °F 28.7 °F 25.0 °F 75% 30.30 in 10.0 mi SSW 3.5 mph - N/A   Clear
11:53 PM 30.0 °F 26.5 °F 25.0 °F 82% 30.30 in 10.0 mi SW 3.5 mph - N/A   Clear